Weather History for Victoria, BC

Change the Weather History Date:

Thursday, November 15, 2012

  Actual Average Record
Temperature  
Mean Temperature 40 °F -  
Max Temperature 47 °F 46 °F 59 °F (1998)
Min Temperature 34 °F 34 °F 26 °F (2014)
Degree Days  
Heating Degree Days 24    
Moisture  
Dew Point 40 °F    
Average Humidity 92    
Maximum Humidity 100    
Minimum Humidity 76    
Precipitation  
Precipitation 0.00 in 0.19 in - ()
Sea Level Pressure  
Sea Level Pressure 30.12 in    
Wind  
Wind Speed 4 mph ()    
Max Wind Speed 9 mph    
Max Gust Speed -    
Visibility 9.3 miles    
Events      
Averages and records for this station are not official NWS values.
T = Trace of Precipitation, MM = Missing Value Source: Averaged Metar Reports

Daily Weather History Graph

Daily Weather History Graph

Search for Another Location

Airport:

Trip Planner

Search our weather history database for the weather conditions in past years. The results will help you decide how hot, cold, wet, or windy it might be!

Date:

Astronomy

Nov. 15, 2012 Rise Set
Actual Time 7:23 AM PST 4:33 PM PST
Civil Twilight 6:48 AM PST 5:07 PM PST
Nautical Twilight 6:10 AM PST 5:46 PM PST
Astronomical Twilight 5:33 AM PST 6:23 PM PST
Moon 9:30 AM PST (11/15) 6:25 PM PST (11/15)
Length of Visible Light 10h 19m
Length of Day
9h 10m
Waxing Crescent, 5% of the Moon is Illuminated
Nov 15
Waxing Crescent
Nov 20
First Quarter
Nov 28
Full
Dec 6
Last Quarter
Dec 13
New

Hourly Weather History & Observations

Time (PST) Temp. Windchill Dew Point Humidity Pressure Visibility Wind Dir Wind Speed Gust Speed Precip Events Conditions
12:00 AM 42.8 °F 41.1 °F 41.0 °F 93% 30.32 in 2.0 mi West 3.5 mph - N/A   Overcast
12:20 AM 42.8 °F 41.1 °F - N/A% - 2.5 mi WSW 3.5 mph - N/A   Overcast
12:40 AM 42.8 °F 41.1 °F - N/A% - 3.0 mi WSW 3.5 mph - N/A   Overcast
1:00 AM 42.8 °F 41.1 °F 41.0 °F 93% 30.30 in 3.0 mi West 3.5 mph - N/A   Overcast
1:27 AM 42.8 °F 40.1 °F - N/A% - 3.0 mi West 4.6 mph - N/A   Overcast
2:00 AM 42.8 °F 40.1 °F 42.8 °F 100% 30.29 in 3.0 mi West 4.6 mph - N/A   Overcast
3:00 AM 41.0 °F 38.0 °F 41.0 °F 100% 30.27 in 4.0 mi West 4.6 mph - N/A   Mostly Cloudy
4:00 AM 41 °F - 40 °F 95% 30.25 in 6 mi WSW 4.6 mph - -   Mist
4:00 AM 41.0 °F 38.0 °F 41.0 °F 100% 30.25 in 6.0 mi West 4.6 mph - N/A   Mostly Cloudy
5:00 AM 42.8 °F 40.1 °F 41.0 °F 93% 30.23 in 10.0 mi West 4.6 mph - N/A   Mostly Cloudy
5:11 AM 42.8 °F 40.1 °F - N/A% - 10.0 mi West 4.6 mph - N/A   Mostly Cloudy
5:46 AM 42.8 °F 40.1 °F - N/A% - 10.0 mi WNW 4.6 mph - N/A   Overcast
6:00 AM 42.8 °F 40.1 °F 42.8 °F 100% 30.21 in 10.0 mi WNW 4.6 mph - N/A   Overcast
7:00 AM 42.8 °F 40.1 °F 41.0 °F 93% 30.19 in 10.0 mi West 4.6 mph - N/A   Overcast
8:00 AM 42.8 °F 41.1 °F 42.8 °F 100% 30.19 in 10.0 mi West 3.5 mph - N/A   Mostly Cloudy
8:12 AM 42.8 °F 39.3 °F - N/A% - 10.0 mi West 5.8 mph - N/A   Mostly Cloudy
8:30 AM 42.8 °F 41.1 °F - N/A% - 10.0 mi WSW 3.5 mph - N/A   Mostly Cloudy
9:00 AM 42.8 °F 41.1 °F 42.8 °F 100% 30.18 in 10.0 mi West 3.5 mph - N/A   Mostly Cloudy
10:00 AM 45 °F - 43 °F 89% 30.15 in 15 mi NNE 4.6 mph - -   Mostly Cloudy
10:00 AM 44.6 °F 42.2 °F 42.8 °F 93% 30.15 in 15.0 mi NNE 4.6 mph - N/A   Mostly Cloudy
11:00 AM 46.4 °F 41.9 °F 41.0 °F 81% 30.12 in 30.0 mi North 9.2 mph - N/A   Mostly Cloudy
12:00 PM 46.4 °F 42.9 °F 41.0 °F 81% 30.09 in 30.0 mi NNE 6.9 mph - N/A   Mostly Cloudy
1:00 PM 46.4 °F 42.4 °F 39.2 °F 76% 30.07 in 30.0 mi North 8.1 mph - N/A   Mostly Cloudy
2:00 PM 46.4 °F 45.2 °F 39.2 °F 76% 30.05 in 30.0 mi NNE 3.5 mph - N/A   Scattered Clouds
3:00 PM 44.6 °F 43.1 °F 39.2 °F 81% 30.04 in 30.0 mi West 3.5 mph - N/A   Partly Cloudy
4:00 PM 45 °F - 40 °F 77% 30.02 in 28 mi NW 4.6 mph - -   Scattered Clouds
4:00 PM 44.6 °F 42.2 °F 41.0 °F 87% 30.02 in 30.0 mi NW 4.6 mph - N/A   Partly Cloudy
5:00 PM 39.2 °F 37.0 °F 37.4 °F 93% 30.01 in 30.0 mi SW 3.5 mph - N/A   Partly Cloudy
6:00 PM 39.2 °F - 37.4 °F 93% 29.99 in 30.0 mi Calm Calm - N/A   Mostly Cloudy
7:00 PM 37.4 °F - 35.6 °F 93% 29.98 in 30.0 mi SW 2.3 mph - N/A   Mostly Cloudy
8:00 PM 37.4 °F 34.9 °F 37.4 °F 100% 29.98 in 20.0 mi NNW 3.5 mph - N/A   Mostly Cloudy
8:24 PM 35.6 °F - - N/A% - 20.0 mi WSW 2.3 mph - N/A   Mostly Cloudy
9:00 PM 37.4 °F 33.8 °F 37.4 °F 100% 29.98 in 12.0 mi WSW 4.6 mph - N/A   Overcast
10:00 PM 40 °F - 40 °F 99% 29.97 in 12 mi West 2.3 mph - -   Overcast
10:00 PM 41.0 °F 39.0 °F 39.2 °F 93% 29.97 in 12.0 mi WSW 3.5 mph - N/A   Overcast
11:00 PM 41.0 °F 38.0 °F 39.2 °F 93% 29.96 in 12.0 mi West 4.6 mph - N/A   Overcast